Regional Weather Roundup
Issued by NWS Wakefield, VA

Home | Current Version | Previous Version | Graphics & Text | Print | Product List | Glossary On
Versions: 1 2 3 4 5 6 7 8 9 10 11 12 13 14 15 16 17 18 19 20 21 22 23 24 25 26 27 28 29 30 31 32 33 34 35 36 37 38 39 40 41 42 43 44 45 46 47 48 49 50
000
ASUS41 KAKQ 121915
RWRAKQ

REGIONAL WEATHER ROUNDUP
NATIONAL WEATHER SERVICE WAKEFIELD VA
200 PM EST TUE DEC 12 2017

Note: "fair" indicates few or no clouds below 12,000 feet with no
significant weather and/or obstructions to visibility. * = Denotes
station may not report precipitation (e.g., rain,snow,etc.),
thunder or fog.

VAZ042-051-052>054-056-122000-
NORTHERN VIRGINIA

CITY           SKY/WX    TMP DP  RH WIND       PRES   REMARKS
WASH NATIONAL  CLOUDY    48  29  47 NW18G25   29.52F
DULLES         CLOUDY    45  30  55 NW21      29.53S
FORT BELVOIR   CLOUDY    47  29  49 NW10G26   29.52S
QUANTICO       CLOUDY    50  32  50 NW9       29.54S
FREDERICKSBRG* CLOUDY    49  32  53 NW13G18   29.52S
STAFFORD*      CLOUDY    46  32  58 NW8       29.56F
WARRENTON      CLOUDY    47  25  42 W16G22    29.52S
CULPEPER*      CLOUDY    48  27  44 NW12G18   29.54S
MANASSAS*      CLOUDY    47  29  49 NW17G28   29.53F
LEESBURG*      CLOUDY    43  32  65 NW18G28   29.55R
WINCHESTER     CLOUDY    37  25  60 NW20      29.55S
FRONT ROYAL*   CLOUDY    43  27  52 MISG      29.53F
LURAY*         CLOUDY    43  25  49 SW13G20   29.54S
$$

VAZ048-049-060>072-079>083-122000-
CENTRAL AND SOUTH CENTRAL VIRGINIA

CITY           SKY/WX    TMP DP  RH WIND       PRES   REMARKS
RICHMOND       CLOUDY    51  31  46 W13       29.53F
CHESTERFIELD*  NOT AVBL
PETERSBURG*    CLOUDY    52  30  43 W8        29.56S
HANOVER        CLOUDY    53  31  42 W15G21    29.53F
TAPPAHANNOCK*    N/A    N/A N/A N/A MISG        N/A
QUINTON*       CLOUDY    48  32  52 W6        29.53F
CHARLOTTSVILLE CLOUDY    47  25  42 NW10G20   29.54S
GORDONSVILLE*  CLOUDY    47  26  44 NW6       29.54R
ORANGE*        CLOUDY    46  28  49 W13G21    29.53S
LOUISA*        CLOUDY    48  27  43 W13G18    29.57S
BUMPASS*       CLOUDY    49  25  38 W8        29.52F
FARMVILLE*     PTSUNNY   50  29  45 W8G17     29.55S
CREWE*         CLOUDY    49  32  51 W8        29.55F
FORT PICKETT*  NOT AVBL
CHASE CITY*    CLOUDY    48  29  48 W9G23     29.58S
CLARKSVILLE*   CLOUDY    50  30  46 W14G20    29.59R
SOUTH HILL*    CLOUDY    50  33  51 W8        29.62F
LAWRENCEVILLE* CLOUDY    50  31  48 W3        29.56F
EMPORIA*       CLOUDY    48  34  57 SW7       29.59S
$$

VAZ088>098-122000-
SOUTHEAST VIRGINIA

CITY           SKY/WX    TMP DP  RH WIND       PRES   REMARKS
NORFOLK        MOSUNNY   53  35  50 W10G21    29.53F
VIRGINIA BEACH PTSUNNY   53  32  44 W15       29.54F
NORFOLK NAVAL  PTSUNNY   52  35  52 W13G20    29.56F
WEST POINT*    CLOUDY   N/A N/A N/A W8        29.54F
SALUDA*        CLOUDY    49  34  55 W3        29.52F
NEWPORT NEWS   PTSUNNY   51  34  52 W15G21    29.54F
LANGLEY AFB    PTSUNNY   51  36  56 W14       29.53F
FORT EUSTIS    CLOUDY    51  35  55 W8G17     29.52F
WILLIAMSBURG*  PTSUNNY   52  36  54 NW12G18   29.55S
HR EXEC AP*    FAIR      53  36  52 W12G18    29.56F
FRANKLIN*      PTSUNNY   51  35  53 W12       29.57S
US460-WAKEFLD  CLOUDY    50  37  61 W6        29.55F
$$

VAZ020-022-025-037-045-122000-
WEST CENTRAL AND SOUTHWEST VIRGINIA

CITY           SKY/WX    TMP DP  RH WIND       PRES   REMARKS
STAUNTON*      CLOUDY    41  20  43 W12G24    29.57S
WAYNESBORO*    CLOUDY    40  22  47 W10G20    29.55R
HOT SPRINGS VA LGT SNOW  27  23  85 W16G32    29.49S WCI  15
LYNCHBURG      PTSUNNY   45  24  43 W12G18    29.59S
DANVILLE       CLOUDY    48  29  47 NW15G21   29.62F
SOUTH BOSTON*  CLOUDY    49  27  41 W10G23    29.60S
MARTINSVILLE   CLOUDY    45  28  50 NW13G18   29.65F
ROANOKE        PTSUNNY   42  26  53 W15G23    29.63F
BLACKSBURG     LGT SNOW  34  28  76 NW21G31   29.64S WCI  23
DUBLIN*        CLOUDY    37  29  73 W16G28    29.65R
MARION*        MIX PCPN  33  24  70 NW22G32   29.66S WCI  21
HILLSVILLE*    CLOUDY    37  23  55 NW20G31   29.58F
RICHLANDS*     FLURRIES  28  24  85 NW12G30   29.70S WCI  18
WISE*          LGT SNOW  28  28 100 W18G25    29.77R WCI  16
ABINGDON*      CLOUDY    36  28  73 NW17G28   29.72F
$$

MDZ021>025-VAZ099-100-122000-
SOUTHERN MARYLAND AND THE DELMARVA PENINSULA

CITY           SKY/WX    TMP DP  RH WIND       PRES   REMARKS
PATUXENT RIVER LGT RAIN  46  35  65 NW10      29.52S
BAY BRIDGE APT CLOUDY    46  32  57 NW9       29.51F
LEONARDTOWN    CLOUDY    45  34  65 CALM      29.52F
DOVER          CLOUDY    47  35  63 W9        29.48F
GEORGETOWN     PTSUNNY   49  34  56 W7        29.50F
EASTON         NOT AVBL
CAMBRIDGE      MOSUNNY   45  36  70 W5        29.52S
SALISBURY      PTSUNNY   46  35  65 W7        29.50F
OCEAN CITY     PTSUNNY  N/A N/A N/A MISG      29.50F
WALLOPS ISLAND CLOUDY    48  37  65 W6        29.51F
ACCOMACK*      PTSUNNY   49  37  63 W7        29.51F
$$

NCZ012>017-030>032-122000-
NORTH CENTRAL AND EASTERN NORTH CAROLINA

CITY           SKY/WX    TMP DP  RH WIND       PRES   REMARKS
ROANOKE RAPIDS FAIR      52  34  50 W10G17    29.58F
RALEIGH        CLOUDY    52  30  43 NW12G20   29.62F
ELIZABETH CITY MOSUNNY   54  42  64 W10       29.56F
AHOSKIE*       MOSUNNY   51  36  56 W3        29.58F
EDENTON*       MOSUNNY   56  40  56 W9        29.58F
CURRITUCK*     MOSUNNY   54  40  58 W10       29.56F
KILL DEVIL HLS MOSUNNY   55  39  55 SW3       29.55F
MANTEO         MOSUNNY   55  39  56 W12G17    29.57F
CAPE HATTERAS  SUNNY     63  46  54 SW24G36   29.56F
TARBORO*       NOT AVBL
GOLDSBORO      MOSUNNY   56  37  49 W13       29.59F
WASHINGTON     MOSUNNY   56  38  51 W8        29.59F
GREENVILLE     SUNNY     54  36  50 W8        29.63F
NEW BERN       SUNNY     58  39  49 W10       29.58F
WILMINGTON     SUNNY     63  40  42 W15       29.60F
$$

VAZ048-122000-
ELSEWHERE

CITY           SKY/WX    TMP DP  RH WIND       PRES   REMARKS
HARRISBURG PA  PTSUNNY   43  27  53 NW21G26   29.49S
BALTIMORE      CLOUDY    46  29  51 W17G28    29.49F
ANNAPOLIS      CLOUDY    47  33  58 W8        29.50F
ANDREWS AFB    CLOUDY    46  28  49 NW18G24   29.50F
PHILADELPHIA   CLOUDY    46  31  55 W8        29.48F
HENDERSON NC   CLOUDY    50  29  44 W12G17    29.59F
GREENSBORO     PTSUNNY   48  28  46 W22G29    29.63F
ROCKY MOUNT    CLOUDY    53  35  50 W14G21    29.60F
$$

VAZ100-122000-
MARINE

STATION/POSITION TIME  TEMP    WIND        PRES    WAVE   SWELL
                       AIR SEA DIR/SP/G            HT/PER HT/PER
                 (UTC) (F)     (DEG/KT/KT) (MB)    (FT/S) (FT/S)
BRANDYWINE LGT   1842   47     300/ 10/ 12  999.0F
CAPE MAY NJ      1842   47 46  290/  7/  9  998.2F
LEWES DE         1842   49 47  290/  9/ 11  998.5F
15NM E FENWICK I 1850   48 53  270/ 14/ 16  998.9F   5/ 6
OCEAN-CITY-INLET 1842   48 47  320/  8/ 12  999.1F
WACHAPREAGUE VA  1842   50 44  250/  6/ 12  999.4F
THOMAS POINT MD  1900   47 47  300/ 10/ 12   N/A
GOOSES REEF MD   1900   46 47  270/  2/  4  999.8    1
COVE POINT MD    1842   45     330/  3/  7 1000.1F
SOLOMONS ISLAND  1842   45 49  340/  2/  4  999.1F
BISHOPS HEAD MD  1842   45 44  260/  4/  5  999.7F
PINEY POINT MD   1848           20/  5/  5   N/A
POTOMAC MD       1900   45 48  290/  8/ 10  999.0    1/ 2
CAMBRIDGE MD     1842   45 45              1000.2F
LEWISETTA VA     1842   46 45  310/  6/  8  999.7F
RAPPAHANNOCK LGT 1848          250/ 10/ 11  999.9F
STINGRAY PT      1900   49 48  330/ 12/ 14  999.9    1/ 3
YORK RVR RNG VA  1842   50     280/ 14/ 16 1000.1F
YORKTOWN VA      1842   50 49  260/ 11/ 15  999.6F
JAMESTOWN VA     1900      47  290/ 12/ 14   N/A
DOMINION TERM VA 1842   50     290/ 12/ 15 1000.5F
KIPTOPEKE VA     1842      47  280/ 12/ 14   N/A
CAPE HENRY VA    1842   51     260/ 12/ 17   N/A
WILLOUBY STN VA  1848          270/ 14/ 15 1000.1S
S CRANEY ISL VA  1842   52     270/  9/ 12 1000.1F
CAPE HENRY BUOY  1900      54                N/A     3/ 5
1ST LANDING BUOY 1900   49 50  280/ 14/ 17 1000.2    2/ 3
CAPE CHARLES BUO 1851      52                N/A     3/ 3
64NM E OF VA BCH 1850   55 61  240/ 21/ 27  999.8F   8/ 7
DUCK PIER NC     1842   52 56  240/ 10/ 14 1000.4F
44100 DUCK FRF   1815      55                N/A     3/ 3
44056 DUCK FRF   1900      56                N/A     2/13
OREGON INLET NC  1842   54 47  230/ 13/ 18 1000.8F
HATTERAS NC      1842   62 57  230/ 18/ 28 1000.8F
DIAMOND SHLS NC  1850   66 74  230/ 29/ 37 1001.1F  11/ 8
CAPE LOOKOUT NC  1900          230/ 14/ 19 1001.6F
$$



USA.gov is the U.S. government's official web portal to all federal, state and local government web resources and services.